Weather History for KMMU - January, 2014

Change the Weather History Date:

Wednesday, January 1, 2014

  Actual Average Record
Temperature  
Mean Temperature 24 °F -  
Max Temperature 32 °F 40 °F 63 °F (1966)
Min Temperature 15 °F 20 °F -7 °F (1964)
Degree Days  
Heating Degree Days 42    
Moisture  
Dew Point 14 °F    
Average Humidity 61    
Maximum Humidity 86    
Minimum Humidity 46    
Precipitation  
Precipitation 0.00 in - - ()
Sea Level Pressure  
Sea Level Pressure 30.33 in    
Wind  
Wind Speed 4 mph (WNW)    
Max Wind Speed 7 mph    
Max Gust Speed -    
Visibility 10 miles    
Events      
Averages and records for this station are not official NWS values.
T = Trace of Precipitation, MM = Missing Value Source: NWS Daily Summary

Daily Weather History Graph

Daily Weather History Graph

Search for Another Location

Airport or City:

Trip Planner

Search our weather history database for the weather conditions in past years. The results will help you decide how hot, cold, wet, or windy it might be!

Date:

Astronomy

Jan. 01, 2014 Rise Set
Actual Time 7:21 AM EST 4:40 PM EST
Civil Twilight 6:51 AM EST 5:11 PM EST
Nautical Twilight 6:16 AM EST 5:46 PM EST
Astronomical Twilight 5:43 AM EST 6:19 PM EST
Moon 7:09 AM EST (1/1) 5:23 PM EST (1/1)
Length of Visible Light 10h 20m
Length of Day
9h 18m
New Moon, 0% of the Moon is Illuminated
Jan 1
New Moon
Jan 7
First Quarter
Jan 15
Full
Jan 24
Last Quarter
Jan 30
New

Hourly Weather History & Observations

Time (EST) Temp. Windchill Dew Point Humidity Pressure Visibility Wind Dir Wind Speed Gust Speed Precip Events Conditions
12:15 AM 24.8 °F 16.9 °F 6.8 °F 46% 30.29 in 10.0 mi West 6.9 mph - N/A   Clear
12:35 AM 24.8 °F 19.1 °F 6.8 °F 46% 30.29 in 10.0 mi West 4.6 mph - N/A   Clear
12:55 AM 24.8 °F 19.1 °F 6.8 °F 46% 30.30 in 10.0 mi West 4.6 mph - N/A   Clear
1:15 AM 24.8 °F 17.9 °F 6.8 °F 46% 30.31 in 10.0 mi West 5.8 mph - N/A   Clear
1:35 AM 24.8 °F 16.9 °F 8.6 °F 50% 30.31 in 10.0 mi West 6.9 mph - N/A   Clear
1:55 AM 24.8 °F 17.9 °F 8.6 °F 50% 30.32 in 10.0 mi WSW 5.8 mph - N/A   Clear
2:15 AM 24.8 °F 17.9 °F 8.6 °F 50% 30.33 in 10.0 mi WSW 5.8 mph - N/A   Clear
2:35 AM 24.8 °F 17.9 °F 8.6 °F 50% 30.34 in 10.0 mi WSW 5.8 mph - N/A   Clear
2:55 AM 24.8 °F 20.5 °F 8.6 °F 50% 30.34 in 10.0 mi WSW 3.5 mph - N/A   Clear
3:15 AM 23.0 °F 17.0 °F 8.6 °F 54% 30.34 in 10.0 mi WSW 4.6 mph - N/A   Clear
3:35 AM 23.0 °F 18.4 °F 8.6 °F 54% 30.34 in 10.0 mi SW 3.5 mph - N/A   Clear
3:55 AM 23.0 °F 17.0 °F 10.4 °F 59% 30.35 in 10.0 mi WSW 4.6 mph - N/A   Clear
4:15 AM 23.0 °F 17.0 °F 10.4 °F 59% 30.35 in 10.0 mi SW 4.6 mph - N/A   Clear
4:35 AM 23.0 °F 18.4 °F 10.4 °F 59% 30.35 in 10.0 mi SW 3.5 mph - N/A   Clear
4:55 AM 21.2 °F - 10.4 °F 63% 30.36 in 10.0 mi Calm Calm - N/A   Clear
5:15 AM 19.4 °F - 10.4 °F 68% 30.35 in 10.0 mi Calm Calm - N/A   Clear
5:35 AM 21.2 °F - 10.4 °F 63% 30.36 in 10.0 mi Calm Calm - N/A   Clear
6:45 AM 15.8 °F - 12.2 °F 86% 30.38 in 10.0 mi Calm Calm - N/A   Clear
7:45 AM 15.8 °F - 12.2 °F 86% 30.40 in 10.0 mi Calm Calm - N/A   Clear
8:45 AM 23.0 °F - 15.8 °F 74% 30.41 in 10.0 mi Calm Calm - N/A   Clear
9:45 AM 24.8 °F - 15.8 °F 69% 30.42 in 10.0 mi Calm Calm - N/A   Mostly Cloudy
10:45 AM 28.4 °F - 17.6 °F 64% 30.41 in 10.0 mi Calm Calm - N/A   Mostly Cloudy
11:45 AM 30.2 °F 23.4 °F 17.6 °F 60% 30.38 in 15.0 mi WSW 6.9 mph - N/A   Mostly Cloudy
12:45 PM 30.2 °F 23.4 °F 17.6 °F 60% 30.36 in 15.0 mi SSW 6.9 mph - N/A   Mostly Cloudy
1:45 PM 32.0 °F 25.6 °F 19.4 °F 60% 30.34 in 10.0 mi SSW 6.9 mph - N/A   Overcast
2:45 PM 32.0 °F - 19.4 °F 60% 30.32 in 10.0 mi Calm Calm - N/A   Overcast
3:45 PM 32.0 °F - 17.6 °F 55% 30.33 in 10.0 mi Calm Calm - N/A   Overcast
4:45 PM 30.2 °F - 19.4 °F 64% 30.32 in 10.0 mi Calm Calm - N/A   Overcast
5:45 PM 28.4 °F 24.6 °F 21.2 °F 74% 30.32 in 10.0 mi East 3.5 mph - N/A   Scattered Clouds
6:45 PM 28.4 °F - 21.2 °F 74% 30.33 in 10.0 mi Calm Calm - N/A   Mostly Cloudy
7:45 PM 26.6 °F 22.6 °F 21.2 °F 80% 30.32 in 10.0 mi NNE 3.5 mph - N/A   Mostly Cloudy
8:45 PM 26.6 °F 22.6 °F 21.2 °F 80% 30.31 in 10.0 mi NNE 3.5 mph - N/A   Mostly Cloudy
9:45 PM 28.4 °F 23.3 °F 19.4 °F 69% 30.29 in 10.0 mi NE 4.6 mph - N/A   Mostly Cloudy
9:55 PM 32.0 °F 27.5 °F 21.2 °F 64% 30.28 in 10.0 mi NNE 4.6 mph - N/A   Mostly Cloudy
10:15 PM 32.0 °F 27.5 °F 21.2 °F 64% 30.29 in 10.0 mi NNE 4.6 mph - N/A   Overcast
10:35 PM 32.0 °F 28.7 °F 19.4 °F 60% 30.28 in 10.0 mi NE 3.5 mph - N/A   Overcast
10:55 PM 32.0 °F 27.5 °F 19.4 °F 60% 30.27 in 10.0 mi NNE 4.6 mph - N/A   Overcast
11:15 PM 32.0 °F 27.5 °F 19.4 °F 60% 30.27 in 10.0 mi NNE 4.6 mph - N/A   Overcast
11:35 PM 32.0 °F 27.5 °F 19.4 °F 60% 30.26 in 10.0 mi NE 4.6 mph - N/A   Overcast
11:55 PM 32.0 °F 26.4 °F 19.4 °F 60% 30.25 in 10.0 mi NNE 5.8 mph - N/A   Overcast